Simultaneous Nadir Overpasses (SNOs) Predictions

Prediction of SNOs between FY3D and AQUA Satellite Orbit:

Table of predicted SNOs for the next 14.0 days since TLE Epoch: 11/13/2021
Index Date (FY3D) Time (FY3D) Lat,Lon (FY3D) SZA (FY3D ) Date (AQUA) Time (AQUA) Lat,Lon (AQUA) SZA (AQUA ) Distance(km) Time Diff (sec)
1 11/15/2021 09:24:45 70.47, 38.71 88.99 11/15/2021 09:25:26 70.48, 38.66 89.00 2.27 41
2 11/15/2021 10:14:44 -68.11,-150.58 93.27 11/15/2021 10:14:08 -68.11,-150.55 93.28 1.44 36
3 11/18/2021 01:41:19 71.43, 153.05 90.58 11/18/2021 01:42:12 71.43, 153.07 90.58 0.87 53
4 11/18/2021 02:31:03 -68.29, -34.85 92.45 11/18/2021 02:30:40 -68.29, -34.89 92.45 1.58 23
5 11/20/2021 17:57:38 71.55, -91.22 91.32 11/20/2021 17:58:44 71.56, -91.28 91.33 2.21 66
6 11/20/2021 18:47:38 -69.26, 79.78 90.91 11/20/2021 18:47:27 -69.26, 79.78 90.92 0.03 11
7 11/23/2021 10:17:09 80.00, -9.49 101.81 11/23/2021 10:18:22 80.33, -8.20 101.97 44.25 73
8 11/23/2021 11:04:10 -70.07,-165.46 89.56 11/23/2021 11:04:11 -70.06,-165.44 89.57 1.00 1
9 11/23/2021 11:53:39 65.98, 7.09 86.56 11/23/2021 11:52:26 65.99, 7.02 86.55 3.23 73
10 11/26/2021 03:20:39 -70.71, -50.54 88.41 11/26/2021 03:20:52 -70.71, -50.50 88.41 1.46 13



Historial Predications of SNOs between FY3D and AQUA
